Temp
7 7 6 7 6 6 6 5 5 6 7 6 7 9 9 9 10 10 8 7 8 3 4 5 5 6 7 7 9 8 9 9 8 9 9 8 8 9 9 10 12 10 8 9 8 10 10 10 10 11 10 9 10 9
7 7 6 6 6 6 6 5 5 6 6 7 6 7 9 10 10 11 9 9 8 5 5 5 6 6 5 6 5 6 8 8 7 8 7 6 9 6 8 9 10 9 9 10 9 10 10 8 11 9 7 8 9 8
7 7 6 6 7 6 6 6 5 6 6 7 7 6 7 9 11 12 10 9 8 4 4 5 5 6 6 6 6 7 6 6 7 5 6 7 8 6 8 7 10 9 8 9 10 10 9 9 9 8 8 8 8 7
7 6 7 6 7 6 6 6 5 5 6 6 7 7 7 7 9 10 10 9 9 5 6 6 6 6 6 6 6 6 5 5 5 4 6 6 8 6 7 7 7 8 8 8 7 8 9 9 7 7 7 6 5 5
7 6 7 6 7 6 6 6 5 5 6 5 6 6 7 7 7 9 9 8 8 8 6 5 5 6 7 6 6 6 5 5 4 6 5 7 5 5 4 4 4 5 7 8 9 9 9 9 7 6 5 4 4 4
7 6 7 6 7 6 6 6 5 5 6 5 5 5 6 7 7 7 5 8 8 8 3 5 4 6 6 7 7 7 5 4 4 5 5 4 4 5 4 4 7 5 6 7 9 7 7 6 6 6 5 4 3 3
7 7 6 6 7 6 6 6 5 5 6 6 6 6 7 7 7 7 6 9 8 8 4 4 3 4 5 5 4 4 4 3 4 4 4 4 4 4 3 5 8 7 6 6 6 5 6 5 6 4 4 4 5 3
7 7 6 6 6 6 6 6 5 5 5 6 6 6 7 7 7 7 7 7 7 7 3 1 2 3 4 4 5 2 4 2 3 4 2 4 3 2 4 5 6 7 6 5 4 5 6 3 2 2 2 2 2 1
7 7 7 6 6 6 6 6 5 6 5 6 6 6 7 6 6 6 6 6 7 6 2 -0 2 3 2 3 2 3 2 3 2 4 3 4 4 4 7 7 6 5 5 5 3 3 2 3 2 1 2 1 1 1
7 7 6 6 6 6 6 6 5 5 5 5 6 6 3 6 6 6 6 3 1 1 0 1 -1 2 2 2 4 3 2 3 2 4 2 3 4 5 5 5 6 6 5 2 3 2 2 2 1 1 1 1 1 1
7 7 6 6 6 6 6 5 6 6 5 5 4 2 5 6 6 2 2 2 2 2 2 1 -0 1 1 3 3 3 -0 -1 1 2 3 3 4 5 5 3 3 4 3 3 5 5 2 2 1 1 1 1 1 1
7 7 6 6 6 6 6 5 5 5 6 7 6 5 5 2 -0 1 -1 0 1 3 1 1 1 2 1 1 3 2 2 -0 2 -0 1 2 3 4 3 3 3 2 2 3 4 3 2 2 2 1 0 0 1 1
7 7 6 6 6 6 6 5 5 6 6 6 4 -0 1 -1 1 1 1 -1 -2 -0 -1 -1 -0 1 1 1 2 2 2 2 1 -2 1 2 3 2 2 2 2 1 2 2 2 2 2 1 2 2 0 1 0 -0
7 7 6 6 6 5 6 5 5 6 7 0 0 2 1 -2 -0 1 1 -0 0 -1 -1 -1 -1 1 1 1 1 1 3 2 -2 -2 2 -0 2 3 1 1 2 2 1 -1 -1 0 -0 -0 -0 1 1 0 -0 -1
6 7 6 6 5 5 5 5 5 6 5 1 -1 1 -0 0 -3 -4 -5 -3 -3 -1 -0 -0 -1 1 -0 1 2 1 -0 -1 0 2 1 -0 2 1 1 1 1 0 -0 -0 -1 -1 -1 -1 -1 -1 -1 -1 -1 -2
6 6 6 5 5 4 5 5 4 5 3 -1 -1 -1 -0 -1 -4 -5 -6 -4 -3 -0 -2 -1 -2 -1 1 0 0 0 -0 1 2 -2 -0 -2 2 1 0 -0 -0 -0 -1 -0 -0 -0 -0 -1 -1 -1 -2 -2 -2 -3
6 6 6 5 5 4 4 3 3 3 3 3 1 0 1 0 0 -1 -1 -0 -1 1 0 -1 -0 3 -1 -2 0 0 -0 1 -0 -1 -2 -1 1 0 -1 -0 -0 -0 -1 -0 -0 -0 -0 -0 -1 -2 -4 -3 -3 -4
6 6 6 5 3 3 3 3 3 2 3 3 2 1 1 2 0 -1 -1 -2 0 -0 -1 0 -2 -1 2 2 1 1 -0 -3 -4 -2 -2 -0 -1 -1 -0 -1 0 0 -0 -0 -0 -0 -1 -3 -4 -4 -3 -3 -4 -5
6 6 5 4 3 1 1 1 1 4 3 2 -1 -1 1 2 1 0 -1 -0 -2 -1 -2 -3 -2 1 3 1 1 -2 -4 -2 3 2 -0 -0 0 -1 -0 0 1 -0 -1 -2 -2 -2 -2 -2 -2 -2 -3 -4 -5 -5
6 6 4 3 3 0 1 1 1 2 3 3 -1 1 1 1 1 0 -1 0 -1 -4 -3 -2 2 4 3 1 -0 0 -1 -0 1 2 2 -0 -1 -1 -2 -2 -2 -1 -1 -2 -2 -2 -2 -3 -3 -3 -3 -4 -5 -6
5 4 4 2 1 0 1 1 1 2 1 1 -2 1 1 -2 -0 -0 -0 -1 -0 -3 -2 1 4 8 2 2 2 1 1 -1 0 3 4 -1 -0 -1 -2 -2 -1 -2 -3 -4 -3 -4 -3 -4 -3 -4 -4 -5 -5 -6
5 4 2 0 -0 -0 1 0 2 1 0 -1 -0 -2 -1 -1 -1 -0 -1 -0 -2 3 1 6 7 6 5 2 2 1 4 3 1 1 2 1 -1 -5 -5 -4 -4 -4 -3 -3 -3 -3 -3 -2 -3 -4 -5 -6 -7 -7
3 1 -0 -0 1 1 1 -0 0 -1 -1 -0 -1 -1 -3 -3 -1 -1 1 -0 0 1 5 5 5 5 2 5 2 3 3 1 1 0 1 1 1 1 -0 -2 -2 -3 -4 -4 -2 -2 -2 -2 -4 -5 -5 -7 -7 -8
1 0 2 2 2 2 0 1 -0 -1 -1 -1 -0 0 -3 -3 -1 -1 1 -2 -1 -1 1 3 4 3 -1 -5 -1 3 3 0 1 2 2 -1 -2 -2 -1 -2 -2 -2 -1 -1 -3 -2 -2 -4 -5 -6 -6 -7 -8 -8
2 1 2 2 1 0 1 0 -1 -1 -1 -2 -2 -3 -3 -2 -0 -1 -2 -2 -1 3 2 2 1 2 2 3 3 3 3 2 -1 -1 1 -1 0 -3 -4 -2 -3 -2 -2 -3 -5 -5 -5 -5 -6 -6 -7 -8 -8 -9
3 2 2 3 -0 -0 -1 -2 -2 -3 -2 -2 -2 -4 -5 -3 -3 -0 -1 -1 5 6 2 1 2 1 1 2 2 2 3 2 1 -2 1 -0 -2 -2 -3 -5 -6 -6 -3 -2 -3 -6 -6 -6 -7 -7 -8 -8 -8 -9
3 2 1 0 0 -1 -1 -2 -1 -1 -1 -1 -3 -4 -1 1 1 -0 -1 -0 1 1 4 4 2 2 3 1 2 2 3 3 2 0 2 1 1 0 -1 -3 -3 -2 -2 -2 -2 -2 -5 -6 -7 -8 -8 -8 -8 -8
3 1 2 -1 -2 -3 -2 -2 -2 -0 -0 -1 0 -1 1 2 2 1 1 0 2 4 6 5 5 4 3 4 4 3 0 -1 -1 -2 -1 -1 -1 -2 -2 -1 -0 0 -0 -2 -1 -1 -2 -3 -5 -7 -7 -8 -8 -8
1 -0 -1 -3 -3 -2 -1 -0 0 1 1 1 2 0 -1 -2 -1 -1 -3 1 1 1 -4 -4 1 2 2 1 1 1 1 -3 -6 -6 -6 -6 -9 -5 -3 -2 -1 -3 -3 -4 -2 -1 -1 -2 -5 -5 -6 -7 -8 -9
-1 1 -3 -2 -1 -0 -1 -1 -1 -2 -2 0 1 -2 -2 -3 -3 -0 -1 -3 -4 -4 0 2 3 -1 -3 -5 -7 -6 -3 -2 -2 -2 -4 -4 -5 -2 -3 -3 -4 -4 -5 -4 -4 -5 -6 -7 -8 -8 -8 -9 -10 -10
-1 -4 -5 -4 -3 -6 -7 -6 -5 -2 -4 -4 -5 -1 -1 -7 -6 -2 -1 1 1 0 -3 -6 -7 -4 -5 -7 -6 -7 -6 -3 -3 -2 -1 0 0 -1 -3 -3 -4 -6 -4 -5 -5 -7 -8 -8 -8 -9 -10 -10 -10 -11
-3 -2 -3 -3 -6 -9 -7 -5 -3 -2 -3 -2 -3 -9 -8 -6 -4 -5 1 -3 -6 -8 -4 -2 -4 -2 -0 -0 0 1 2 2 1 -2 -2 -2 -1 -1 -4 -4 -4 -5 -5 -5 -7 -8 -8 -8 -9 -10 -10 -10 -11 -11
-5 -5 -6 -5 -5 -4 -5 -3 -3 -3 -5 -5 -5 -6 -7 -4 -1 -3 1 2 2 2 0 0 2 1 1 2 1 1 -1 -0 1 -0 -2 -2 -1 -3 -5 -5 -5 -6 -6 -7 -7 -8 -8 -8 -9 -9 -10 -10 -11 -11
Height
817 819 818 817 816 814 810 811 810 809 807 804 804 802 800 797 795 796 802 800 800 806 808 806 806 807 803 804 802 798 796 794 796 797 799 802 803 796 793 786 776 785 797 792 795 787 785 765 770 771 767 765 764 766
812 814 816 814 814 812 809 808 809 807 806 805 804 802 800 798 794 794 798 799 799 801 805 805 803 802 802 803 806 804 803 802 804 805 808 809 798 806 800 793 782 790 782 781 782 774 761 763 758 760 764 764 764 766
808 809 811 811 810 810 808 806 806 806 805 804 804 804 801 799 796 793 794 796 798 802 805 805 804 802 800 798 799 802 803 803 802 804 807 806 802 804 799 800 783 777 779 779 772 759 761 759 759 760 760 762 764 765
803 805 806 807 807 806 806 804 804 803 802 803 802 803 803 801 799 796 794 793 794 800 805 803 799 800 802 802 800 798 797 798 799 801 803 805 802 799 798 791 791 779 778 775 775 764 761 757 759 759 761 763 765 767
797 799 802 803 804 803 802 801 801 802 801 801 802 802 803 802 801 798 796 795 793 795 802 802 798 798 797 797 799 800 800 800 800 801 804 800 800 799 798 797 791 771 765 766 762 751 753 753 754 757 762 765 766 768
791 793 796 799 799 801 798 798 797 799 799 800 800 801 802 802 802 801 799 798 796 794 798 804 798 796 796 796 795 796 796 797 800 800 800 799 797 796 799 793 757 754 752 748 748 749 752 754 756 757 760 763 765 767
783 786 789 793 795 797 797 795 794 795 795 797 798 798 800 801 800 800 801 797 795 795 798 802 802 795 794 794 794 794 793 794 796 798 798 797 794 795 794 782 744 744 744 745 746 749 753 754 754 756 758 761 764 767
777 778 783 786 790 791 793 792 792 793 793 793 796 796 798 800 800 798 797 796 795 794 796 810 804 800 795 796 796 795 796 797 796 793 796 792 791 792 780 745 741 739 742 744 746 746 746 749 755 758 760 762 765 768
770 771 775 779 784 788 788 789 789 790 793 792 795 794 794 799 799 797 796 796 796 799 805 809 808 805 794 799 800 799 800 802 799 797 797 795 784 776 740 738 738 741 739 737 745 748 751 751 755 758 760 762 764 766
763 764 766 769 777 783 786 786 787 788 790 793 793 797 796 794 798 796 795 796 797 795 796 802 801 798 794 800 799 804 803 804 808 795 795 791 770 747 741 740 737 736 739 744 748 754 752 753 754 756 757 760 763 765
753 757 761 762 769 776 780 784 784 785 787 791 790 791 792 793 795 798 801 802 801 799 792 792 796 796 794 795 796 799 813 815 817 803 796 787 769 744 736 734 730 728 731 736 738 739 743 745 751 754 758 759 762 764
745 747 751 757 759 769 773 779 783 783 783 784 784 787 789 794 803 807 812 804 800 792 790 792 792 791 792 790 789 798 804 814 809 805 804 794 756 738 737 733 730 728 728 731 734 738 742 744 747 751 754 758 761 763
734 738 745 748 753 760 767 773 781 784 784 783 785 787 788 801 809 811 804 806 806 787 788 790 795 791 793 790 793 794 800 802 802 817 793 767 744 739 737 734 732 732 734 735 738 740 742 745 749 752 754 757 760 762
725 730 736 741 746 752 761 769 777 781 782 787 791 791 783 798 790 780 780 781 774 776 783 785 792 793 793 796 794 802 792 796 818 818 778 759 740 735 735 736 735 734 737 740 741 743 745 747 750 752 754 756 758 760
716 722 727 732 740 744 757 764 771 778 779 784 787 781 775 757 766 772 776 775 774 772 775 784 790 790 797 798 796 800 805 810 795 773 761 745 735 734 732 732 733 734 735 737 739 741 744 747 749 752 754 755 757 758
708 715 718 724 731 738 752 759 764 772 774 777 775 773 765 762 768 771 778 775 769 771 775 779 792 797 793 794 801 799 800 784 757 757 738 735 728 728 728 727 728 730 733 735 737 740 744 746 749 751 754 755 756 756
701 702 708 716 722 732 745 752 759 764 765 758 754 752 754 750 746 751 759 762 765 768 775 782 790 777 788 798 790 777 771 744 736 733 730 729 727 726 725 725 724 725 728 731 735 738 740 743 746 749 751 752 754 754
690 693 699 708 716 729 737 744 747 748 744 741 742 739 744 745 743 743 750 755 760 766 768 771 774 779 765 762 757 739 733 731 729 725 723 722 721 721 721 723 723 723 724 726 727 731 736 739 742 744 747 749 751 752
682 686 692 698 705 720 730 735 734 730 728 732 734 733 732 737 736 734 739 746 752 754 760 769 769 754 731 725 721 725 727 723 715 717 718 715 715 715 716 717 720 722 723 725 727 729 731 734 737 740 744 746 747 749
676 678 684 689 698 710 719 721 724 725 722 721 726 726 727 729 731 734 737 742 750 758 764 758 732 711 709 705 706 706 708 709 713 715 713 712 710 709 710 712 714 716 721 724 726 728 730 734 735 736 740 743 743 745
668 668 679 688 696 699 701 705 711 710 716 720 721 721 724 730 731 733 734 737 744 745 737 717 703 688 694 695 697 700 702 704 706 703 702 708 704 704 704 706 710 714 717 719 722 723 725 727 731 733 736 738 739 742
658 666 675 684 688 692 692 694 694 703 713 716 717 721 723 724 726 727 728 732 728 707 706 696 688 689 694 694 692 693 692 693 695 696 698 699 703 704 702 700 704 706 709 712 715 717 718 723 727 730 732 735 735 738
655 663 671 678 682 683 686 688 695 703 710 711 715 718 722 721 717 718 715 706 695 687 683 683 682 685 686 683 684 682 682 685 685 683 685 685 684 687 691 692 692 694 698 701 707 712 715 719 723 726 729 732 732 735
651 657 660 665 666 672 684 684 690 697 702 704 706 706 714 714 712 712 698 687 676 675 674 670 675 677 679 680 678 673 671 675 675 673 670 673 677 678 679 681 682 682 683 688 697 704 710 714 719 722 726 728 728 730
646 652 652 653 659 671 675 679 684 689 694 698 703 709 706 706 705 701 689 674 668 657 655 659 664 666 667 663 662 660 659 665 667 667 663 662 667 670 672 673 675 676 681 686 691 697 702 708 714 716 722 722 722 726
629 634 636 636 653 655 664 672 676 684 687 694 694 699 702 700 705 683 670 657 638 637 643 647 650 657 658 654 652 652 648 651 655 659 654 655 659 661 663 668 671 670 673 677 682 689 696 701 708 712 717 717 718 721
618 621 627 630 635 642 652 657 660 664 671 673 684 691 684 680 673 656 642 630 628 624 625 630 637 640 641 640 641 640 642 645 646 648 647 647 648 649 652 655 656 657 662 669 676 681 687 694 700 707 711 711 713 717
608 615 614 628 634 639 644 648 652 648 648 655 656 666 658 648 640 628 620 612 612 616 619 624 627 629 631 630 632 634 637 640 643 645 644 645 643 644 648 651 653 656 657 662 669 676 682 687 693 701 704 705 709 713
606 607 614 630 632 631 628 627 625 622 621 629 627 635 635 627 616 613 610 610 611 615 619 622 622 624 626 626 628 629 631 634 640 645 646 645 645 643 644 648 652 655 657 662 668 674 679 684 689 695 699 703 707 711
602 600 614 613 615 611 606 607 610 610 613 613 612 616 616 613 606 605 606 608 611 613 611 613 615 619 620 623 623 625 626 627 629 630 634 634 634 636 640 643 647 649 656 662 665 673 679 685 690 693 698 702 705 708
595 604 611 608 606 608 609 608 608 608 612 613 616 613 611 614 604 600 600 601 603 607 609 610 611 611 613 615 616 619 621 619 620 623 624 626 627 630 634 640 645 651 652 658 662 668 674 679 685 690 695 699 703 706
593 594 597 601 610 614 611 610 609 608 613 612 612 622 618 615 612 598 588 592 598 601 597 599 602 600 598 601 603 605 606 607 609 612 616 620 624 626 631 636 642 649 652 655 661 667 672 676 682 687 693 697 700 703
593 594 599 602 607 608 611 607 608 613 617 618 612 612 611 607 598 588 580 579 579 581 582 583 585 588 591 594 595 597 601 603 605 606 610 616 620 623 627 634 641 647 652 655 660 666 670 674 680 686 691 694 698 700
Wind_Speed
15 13 12 10 10 13 8 7 7 4 1 2 3 11 16 15 7 7 6 12 2 3 2 1 1 2 3 2 1 4 3 4 3 4 1 2 1 3 2 4 2 3 3 3 1 1 5 5 4 6 4 2 5 4
16 14 14 12 10 12 8 6 7 4 4 6 5 4 10 13 8 6 4 5 6 5 2 2 3 3 4 3 1 3 2 1 1 2 1 1 2 1 2 3 1 3 5 3 7 5 3 6 3 3 4 4 4 5
18 14 14 14 11 12 10 6 6 5 4 6 7 8 5 8 9 5 7 4 3 3 2 1 3 4 5 5 5 3 0 0 0 2 2 1 3 3 2 5 2 3 3 3 2 2 6 5 3 4 5 4 3 3
19 16 14 16 13 11 11 8 7 5 4 4 5 7 5 5 7 5 5 5 6 4 2 4 2 3 3 4 4 3 2 2 3 2 2 2 2 3 3 4 4 5 5 4 5 7 4 5 6 6 4 5 5 4
21 18 16 17 15 12 12 9 8 7 4 3 4 4 4 3 2 3 9 7 3 3 4 3 3 3 3 2 4 4 3 2 0 0 2 3 2 1 2 1 4 5 7 5 5 6 4 3 6 7 8 6 7 6
19 19 18 19 16 15 13 11 8 8 6 4 3 5 4 3 5 4 3 1 4 2 3 1 2 1 1 2 2 4 4 2 1 2 3 2 2 2 2 3 7 7 5 6 4 3 2 4 4 5 6 7 6 7
22 20 19 20 18 17 14 12 10 9 7 5 3 2 6 7 5 3 2 1 2 1 2 3 3 2 1 2 1 2 3 3 3 2 3 2 2 4 3 5 6 7 9 6 4 7 2 4 5 6 7 9 10 9
25 22 20 20 20 18 16 13 11 9 8 7 4 1 2 4 3 3 3 1 0 3 4 2 4 3 1 1 1 1 1 2 1 2 0 2 1 2 5 10 4 3 3 5 7 0 3 6 6 6 7 7 6 6
27 24 22 22 21 20 17 15 13 10 9 8 7 3 1 2 1 3 4 7 4 1 3 2 4 4 1 1 1 2 2 1 1 1 2 0 3 6 9 4 5 7 7 8 7 6 7 6 8 7 6 6 6 5
30 28 24 23 22 20 19 15 13 11 9 12 8 2 2 3 3 2 1 3 3 3 2 2 1 1 3 1 1 1 2 1 1 3 2 3 4 8 11 7 6 5 6 8 5 3 5 5 8 8 7 6 6 5
32 30 27 26 23 21 17 14 12 16 20 8 5 4 3 1 2 3 1 2 1 3 3 2 3 3 2 3 3 2 2 1 2 4 1 3 3 4 4 7 7 9 10 10 2 2 7 6 8 7 5 6 8 8
34 32 31 30 26 22 16 13 19 20 11 11 11 6 4 3 3 2 3 3 3 5 2 4 3 2 1 1 3 2 3 2 5 1 1 4 4 5 6 6 6 3 8 8 6 6 7 8 12 9 8 9 8 6
37 35 34 33 29 25 22 22 29 12 16 8 2 3 3 0 2 6 7 4 2 3 3 2 1 2 1 1 2 3 4 5 1 1 4 5 4 6 7 3 2 4 5 6 5 8 10 10 13 13 9 8 8 6
38 39 37 35 32 29 27 28 30 20 4 2 4 4 6 4 6 6 5 4 4 4 4 3 2 2 0 2 2 4 2 3 2 2 6 3 5 5 4 2 2 4 5 4 4 8 9 11 10 10 10 10 8 5
39 41 40 37 35 33 32 32 33 18 5 3 3 6 8 4 2 1 1 2 2 4 4 3 3 3 1 2 1 2 3 4 6 5 3 4 4 5 3 4 6 6 6 6 8 7 10 13 12 9 9 8 5 4
38 40 39 40 38 37 37 35 26 13 2 2 3 2 3 2 1 2 2 2 2 4 2 2 3 3 3 3 2 7 5 7 4 4 4 3 3 4 5 6 7 7 8 8 12 12 12 12 11 9 8 6 5 4
40 25 31 43 43 42 41 16 7 6 5 5 4 3 3 2 3 4 4 4 7 3 3 3 5 9 3 2 4 5 6 4 4 4 3 4 6 5 6 6 6 10 10 13 14 15 15 13 12 13 7 9 7 4
29 30 32 44 47 41 14 8 6 6 8 4 4 4 3 2 2 3 4 4 4 3 4 5 4 3 6 6 5 4 5 3 3 3 3 4 5 5 7 6 10 13 13 18 19 20 19 18 14 11 11 11 8 7
28 35 37 55 44 13 5 7 5 4 7 3 2 1 3 2 2 2 5 7 2 3 5 1 4 5 6 5 5 4 3 4 4 4 3 5 9 8 9 11 12 13 15 16 17 15 18 21 16 14 14 13 9 7
33 36 49 58 48 6 5 3 8 3 4 3 2 5 3 3 3 3 5 6 3 3 1 4 6 5 4 3 5 4 3 4 3 2 4 4 10 11 12 13 11 16 14 15 18 15 16 13 12 15 15 13 10 8
32 28 58 47 11 5 4 4 4 3 4 3 3 5 2 2 2 3 4 5 4 4 4 6 9 14 6 3 5 5 4 5 6 6 5 3 4 12 11 16 16 16 11 11 9 12 16 14 19 18 15 13 9 7
15 43 19 15 3 5 3 7 4 4 3 2 4 2 3 4 3 4 5 5 4 8 7 12 15 13 7 6 6 14 19 16 17 9 9 5 2 1 3 11 13 7 13 15 17 15 16 21 17 18 16 13 10 7
32 17 7 6 4 5 3 11 4 4 5 6 4 4 2 2 3 5 4 5 6 7 12 13 19 21 10 22 12 16 22 19 8 7 12 13 17 18 13 16 20 14 8 17 24 23 22 20 18 18 15 13 12 9
13 7 6 8 5 5 5 5 3 4 3 4 6 5 3 3 4 3 5 4 3 2 6 16 12 11 6 3 7 13 22 19 16 16 19 11 6 8 20 19 22 24 24 21 27 25 23 23 19 18 18 16 13 12
6 6 6 6 4 5 6 5 4 3 5 4 5 2 3 3 4 5 4 3 4 9 10 9 7 10 11 11 8 9 20 20 8 8 16 19 15 4 10 20 22 23 26 23 20 24 24 24 22 20 20 18 15 13
6 7 10 10 4 6 8 6 8 6 5 4 6 2 2 3 3 8 4 4 12 8 8 9 10 8 9 10 10 8 12 18 21 5 17 19 21 12 8 8 6 11 28 30 30 25 24 23 22 21 20 16 14 14
6 6 5 2 4 5 4 2 4 4 6 7 5 6 4 5 8 5 3 5 5 5 18 19 15 8 9 6 18 22 18 12 15 13 11 13 22 27 23 14 12 15 31 34 33 34 30 27 23 22 20 18 17 15
4 6 11 7 3 2 5 4 6 8 6 5 8 7 10 10 7 4 6 5 17 9 12 19 23 23 21 24 18 9 8 12 14 12 7 8 12 18 21 22 20 20 29 38 35 31 29 27 27 26 23 21 18 15
4 4 6 5 4 4 6 6 8 5 5 8 10 6 5 4 3 3 3 6 9 13 3 2 9 14 15 15 13 14 15 20 9 6 6 4 1 7 15 18 20 21 27 31 29 28 25 23 25 24 21 19 16 14
4 7 3 6 7 9 6 6 4 4 4 5 3 1 2 3 5 10 9 11 6 5 12 17 14 16 6 6 3 10 21 24 25 11 6 7 8 14 23 25 25 27 30 32 30 24 19 21 20 20 20 18 16 14
6 3 3 3 5 2 1 1 2 2 2 1 1 2 4 3 4 9 20 19 20 16 9 5 9 19 12 5 6 4 6 27 30 29 17 12 13 19 28 28 28 30 35 34 34 30 29 27 25 24 21 18 15 13
4 5 4 4 2 3 2 1 2 2 2 2 3 1 2 2 4 3 11 20 12 5 15 15 5 7 29 28 24 24 22 13 21 33 30 19 19 20 27 33 34 34 35 34 31 29 30 29 26 23 21 18 15 12
2 3 3 4 3 3 2 3 2 2 1 2 4 3 4 4 7 4 7 20 24 22 20 26 29 24 18 16 21 23 24 17 13 18 27 27 23 26 33 37 37 35 33 31 30 31 29 27 25 22 19 17 14 12
Wind_Direction
279 282 287 292 302 324 333 330 335 353 279 189 22 38 36 41 57 85 54 25 15 119 259 137 23 346 342 29 53 301 13 358 16 43 73 266 213 259 320 244 204 193 152 220 123 259 292 149 97 169 207 195 166 147
270 272 280 280 288 308 317 315 318 332 261 230 268 355 34 33 57 98 92 35 38 87 189 182 159 167 183 190 164 346 175 356 227 52 343 317 297 331 196 282 343 265 192 201 184 218 245 206 199 187 168 163 190 167
267 259 268 273 275 292 305 295 298 303 308 268 263 296 352 26 34 114 118 67 107 98 337 17 247 215 207 199 181 127 242 237 30 167 187 256 270 124 259 252 279 267 174 228 4 262 227 216 209 181 180 165 141 134
262 257 257 262 263 280 297 284 284 282 286 302 246 285 316 358 37 50 110 119 120 114 115 269 202 239 264 270 230 213 181 227 179 136 164 188 228 164 235 255 213 214 144 202 258 274 305 255 206 187 154 121 120 112
255 250 252 258 258 264 283 276 269 273 270 271 305 284 296 309 337 72 77 68 98 145 192 248 289 215 186 203 262 264 270 321 301 137 153 227 222 166 227 304 246 190 199 183 227 214 172 218 177 158 153 171 166 140
247 242 246 254 251 260 270 267 251 255 258 258 284 304 287 275 280 267 356 326 23 167 99 335 317 245 244 236 219 194 198 184 154 184 239 274 286 164 248 248 248 210 217 200 235 171 170 119 136 141 157 158 160 155
239 239 240 247 247 251 262 260 244 243 230 238 288 334 321 298 269 237 218 72 349 200 75 332 328 258 253 262 240 189 181 186 163 199 219 213 238 175 229 234 236 224 225 212 168 124 105 203 197 157 139 137 133 131
237 235 236 239 243 244 254 254 242 235 231 211 206 204 311 336 297 262 261 282 74 108 65 145 258 353 33 232 272 20 304 10 283 256 340 207 260 187 257 238 236 259 191 168 175 13 138 116 114 116 122 129 128 145
232 229 230 234 241 243 248 247 236 222 232 206 190 185 261 240 260 317 302 303 276 173 185 145 166 224 64 47 312 354 52 344 339 296 288 357 230 230 242 227 226 206 194 182 148 128 133 142 153 151 142 159 155 171
227 224 224 227 235 239 247 245 234 217 202 179 152 179 328 180 289 304 323 5 359 328 67 208 34 202 113 80 19 32 23 273 277 251 310 229 262 268 281 259 262 243 190 138 116 164 171 170 173 172 183 180 175 169
221 221 223 222 226 230 239 238 229 196 163 175 170 181 150 148 176 31 287 127 309 289 184 214 189 159 283 122 171 139 193 318 359 267 198 279 272 249 283 293 266 226 177 187 146 157 172 170 172 166 168 169 169 166
221 217 218 220 216 218 218 208 186 165 178 177 149 127 127 66 41 86 235 312 185 233 203 155 204 203 211 164 118 142 146 65 241 252 64 271 255 264 311 311 327 180 155 153 152 156 160 157 162 157 155 161 167 165
222 216 218 213 213 206 199 190 180 182 147 135 76 75 107 331 47 187 209 262 237 189 188 146 122 147 341 358 70 117 127 217 79 35 234 232 269 288 292 287 21 65 108 109 104 124 139 136 151 152 145 155 156 159
231 219 216 212 208 200 191 186 186 179 205 121 148 221 185 180 228 196 186 187 216 128 140 122 100 126 120 31 141 107 219 79 2 272 238 254 249 286 303 266 138 163 157 128 118 135 137 138 136 143 155 159 161 164
235 225 216 212 209 194 185 187 186 188 206 193 142 229 214 203 133 201 188 98 226 146 121 90 59 99 26 77 242 73 42 251 209 231 234 237 255 289 251 200 200 181 173 167 162 157 157 158 153 148 156 160 168 167
234 224 206 206 207 185 182 189 177 187 203 155 240 300 242 95 245 122 195 215 199 138 78 62 119 88 232 157 119 223 155 224 240 215 229 235 249 249 226 201 198 187 179 174 175 174 172 172 172 171 170 179 186 185
225 206 205 201 199 175 180 153 145 182 206 213 236 189 238 286 181 162 155 191 163 116 168 137 148 202 104 118 231 191 214 219 209 230 217 231 259 266 238 224 199 182 181 182 181 184 184 180 173 167 177 185 188 191
210 209 204 192 173 164 171 160 168 193 223 206 203 181 183 219 163 140 168 153 142 173 136 202 134 174 200 196 229 227 227 252 231 233 232 257 251 252 231 223 213 205 194 187 185 185 178 174 177 191 189 179 177 178
217 208 195 171 159 151 156 187 192 220 210 185 184 155 146 211 217 112 142 166 126 133 118 96 198 208 220 206 197 215 215 208 205 222 231 234 236 228 225 219 222 210 201 189 179 180 184 193 194 191 188 187 190 194
229 212 184 164 161 130 154 183 171 225 203 197 144 167 171 176 157 155 144 155 137 140 154 216 223 231 210 215 192 202 188 178 155 233 265 237 232 212 212 203 202 205 196 193 192 186 179 181 189 184 189 194 189 198
198 181 169 158 171 149 173 151 173 200 149 192 167 149 163 114 161 169 166 152 175 202 228 226 242 249 192 210 211 197 216 173 201 202 222 258 219 209 213 215 208 190 178 181 186 194 189 191 195 189 185 198 194 197
187 160 149 174 141 180 185 188 142 137 139 141 150 108 151 170 181 193 134 195 222 223 219 237 246 259 270 253 237 216 242 234 229 234 247 205 206 227 224 198 175 195 195 196 192 193 194 200 193 190 190 195 178 187
144 146 126 143 166 179 155 142 122 157 154 173 143 155 212 205 199 136 222 213 232 214 228 234 243 245 246 264 270 250 240 224 227 221 237 230 231 235 221 201 197 191 190 200 201 197 196 189 184 189 186 185 178 178
134 149 157 169 161 165 152 177 129 133 129 172 168 189 220 187 149 217 248 231 221 202 221 230 229 244 243 260 253 259 259 233 238 246 238 209 222 222 213 213 203 204 203 193 191 192 188 186 181 180 190 188 182 185
135 190 167 174 146 134 159 144 145 148 161 172 168 172 188 154 189 234 236 254 211 227 225 216 210 220 231 243 248 250 255 221 217 234 247 216 231 185 193 210 213 209 200 175 167 173 177 181 183 185 194 190 181 186
188 185 179 176 146 156 170 149 174 161 138 153 206 121 139 140 176 243 222 216 231 223 212 203 208 209 226 228 244 250 251 233 217 209 251 222 205 205 203 191 192 209 203 197 174 170 172 175 183 186 197 190 182 183
182 177 180 134 140 124 119 101 134 143 165 181 160 162 154 201 227 244 243 226 198 205 207 201 190 197 221 226 221 238 247 238 205 218 238 247 236 227 211 201 203 206 196 194 194 188 177 179 181 192 195 190 188 194
207 181 178 159 127 146 132 147 164 186 173 171 152 175 185 202 219 222 212 237 214 213 214 216 218 220 222 236 244 236 205 212 214 230 243 246 240 234 231 228 228 224 200 193 192 192 193 191 188 191 190 185 188 192
209 161 124 147 143 178 198 176 199 207 155 171 179 182 225 223 218 206 223 206 191 181 152 176 223 220 234 244 243 228 208 181 152 162 212 234 308 230 200 210 195 186 185 178 185 189 187 190 191 188 184 180 180 181
202 168 129 159 168 204 214 181 191 174 175 176 183 58 314 263 235 208 172 154 149 194 206 209 220 193 207 187 205 214 213 212 205 196 189 211 209 200 188 186 187 179 174 171 165 160 155 155 152 156 162 163 167 173
149 137 111 161 213 234 201 38 3 87 70 126 353 205 228 280 293 218 208 209 212 214 202 215 221 217 202 198 195 184 238 224 221 219 224 226 205 192 191 187 183 175 169 165 158 156 154 160 165 163 166 169 171 178
147 185 150 142 251 314 29 101 139 132 145 173 231 225 327 34 250 268 211 197 182 201 224 218 200 232 231 233 235 233 240 238 222 215 209 198 189 193 190 183 177 174 167 161 160 163 168 162 162 167 168 170 173 178
103 105 94 116 132 178 205 134 126 133 195 226 246 204 212 196 231 253 225 222 216 218 220 223 232 240 245 238 235 232 224 229 227 206 208 209 209 192 181 176 175 172 168 161 163 167 167 164 162 166 167 168 171 178